DECAYED

STARLINK-5369, 54837 (Decayed)

Orbit data source: Space-Track

STARLINK-5369, 54837 was a payload satellite owned by SpaceX/Seattle (US) in LEO that was launched on Wed, 28 Dec 2022 UTC via an FALCON 9 launch vehicle from the Air Force Eastern Test Range (AFETR). Payload-class satellites include a variety of spacecraft equipped with specific instruments for various scientific and technological missions. These include communications satellites like Starlink; space stations such as the ISS; scientific satellites like the Hubble; Earth observation satellites from companies like Planet Labs, Umbra, and HawkEye 360; GPS; miniature CubeSats for education and research; and military/defense satellites.

Not visible in the next 10 days
Identifier
54837, 2022-177T
Orbit
Decayed
Country
Flag of USUS
Related business
Manufacturer
SpaceX/Seattle
Mission
Decayed Commercial Communications
Bus & Motor
STARLINK, Unknown motor
Mass
305 kg wet, ~290 kg dry
Launch date (UTC)
2022-12-28 (3 years ago)
Launch vehicle
FALCON 9
Launch site
Air Force Eastern Test Range (AFETR)
Object type
Payload
Rocket body
Debris
Shape & HBR
Box + 1 Pan, 10.1 m
Radar Cross Section
13.562 m², Large (>1 m²)

Expand to show TLE details & history
Last TLE update: 1 month ago

TLE from 1 month ago
0 STARLINK-5369
1 54837U 22177T   26146.09274194  .07267415  93102-5  47067-3 0  9990
2 54837  42.9869  34.7937 0008486 265.2687  94.7237 16.40586181189035
Epoch: 2026-05-26T02:13Z
TLE epoch observation values (Epoch: 2026-05-26T02:13:32.903Z)
Latitude
-0.00002°
Longitude
117.73545°
Altitude
164.468 km
Speed
7.809 km/s
True Right ascension
02h 19m 10s
True Declination
0° 00' 00"
Sunlit
Object was in daylight at epoch
Visualization orbit readout
Latitude
Unknown
Longitude
Unknown
Altitude
Unknown
Speed
Unknown
Apparent Right ascension
Unknown
Apparent Declination
Unknown
Sunlit
N/A
Visualization observer readout
Local Sidereal Time
21:24:35
Azimuth
Unknown
Elevation
Unknown
Doppler factor
Unknown
Orbital elements
Apogee altitude
171.839 km
Perigee altitude
160.732 km
Semi-major axis
6,544.423 km
Eccentricity
0.00085
Inclination
42.9869°
RAAN
34.7937°
Arg. of periapsis
265.2687°
True anomaly
94.8206°
Mean anomaly
94.7237°
Eccentric anomaly
94.77215°
Mean motion
4.09955 °/min
Orbital period
87.81 mins
BSTAR
0.00047067
Loading maneuver chart data...
Computing Atmospheric mass density...
Loading historical data...
Loading historical data...
Loading historical data...
Loading historical data...
Loading historical data...
Loading historical data...
Loading historical data...

Documentation

Showing up to 5 results
|